GFSNW_250_spd_006.txt.gz
Wind_Speed
60 48 36 19 8 12 20 23 29 38 54 66 67 58 57 53 44 40 37 32 33 31 36 39 38 43 43 30 23 23 34 45 42 39 33 26 26 27 27 29 37 39 47 62
57 44 29 16 3 11 17 19 30 37 51 62 59 60 61 52 45 43 39 35 33 34 36 33 34 20 7 10 4 11 15 25 23 21 14 15 13 3 7 14 20 24 31 40
54 41 24 12 4 12 18 19 19 25 35 46 54 59 60 54 51 46 40 37 36 36 34 27 15 19 11 8 3 8 12 14 15 16 24 17 13 14 6 10 16 20 25 29
52 38 22 13 9 8 14 21 22 25 26 37 41 52 56 55 53 48 43 40 38 34 28 25 21 21 16 14 8 5 9 19 25 28 29 25 20 18 11 4 4 11 18 25
48 36 21 11 11 3 10 17 26 32 34 36 43 53 58 57 53 48 46 42 38 32 28 28 30 23 23 15 8 10 11 21 25 31 30 29 26 19 17 12 16 21 23 27
48 33 17 11 8 2 11 20 24 26 27 32 41 52 59 59 55 52 49 43 38 33 30 30 28 26 25 18 9 10 11 20 22 23 26 22 31 28 26 22 26 24 29 30
47 34 19 8 4 2 10 16 20 25 31 37 40 42 49 56 56 54 53 45 37 36 38 24 28 30 24 16 11 11 6 22 18 15 18 21 18 16 27 25 28 24 22 21
48 35 19 7 2 3 7 14 20 29 32 31 33 42 44 47 46 49 45 42 41 43 34 29 32 35 23 20 13 14 16 10 17 15 24 18 21 12 18 15 25 25 19 23
47 36 22 12 5 7 12 14 20 24 28 33 36 42 45 48 50 49 47 47 44 41 37 29 37 31 25 18 19 21 21 15 21 11 13 12 21 14 15 11 4 10 12 12
47 37 25 13 8 8 13 17 22 27 30 36 41 45 47 49 50 51 48 47 45 39 34 31 40 29 24 21 18 23 22 21 17 18 14 11 16 12 3 7 13 9 5 5
46 36 27 18 11 9 13 20 23 29 37 40 44 46 50 52 52 49 43 43 39 37 35 33 34 30 33 31 24 19 18 16 20 17 18 14 16 10 10 9 9 10 5 4
43 33 27 20 16 13 14 17 26 32 38 42 46 48 53 54 52 46 39 40 40 38 36 39 32 29 30 31 25 28 27 26 20 21 21 19 16 18 16 18 21 22 20 11
39 30 25 21 18 17 17 18 24 35 39 43 48 53 55 54 50 43 40 37 36 31 31 25 27 35 29 27 27 24 23 29 29 22 18 17 15 20 19 15 20 23 15 13
39 28 23 20 20 21 22 22 28 38 41 48 52 56 55 52 47 41 39 37 33 30 27 24 21 18 15 13 11 11 15 17 22 23 25 29 30 23 27 20 15 15 14 11
40 29 21 19 21 24 27 32 33 38 45 52 56 56 54 49 44 39 38 37 34 30 27 24 20 16 17 18 18 18 17 18 18 18 17 19 16 16 18 10 11 12 10 11
40 30 21 19 21 26 28 32 34 43 54 58 57 55 52 48 45 41 39 36 32 28 25 21 18 18 16 15 14 11 15 18 19 20 20 18 15 13 12 13 11 8 6 7
38 31 23 20 22 24 29 34 43 53 58 61 59 56 52 50 46 43 40 35 32 30 25 21 16 17 14 8 8 8 11 13 14 15 14 10 5 3 1 3 6 5 6 6
35 29 24 21 22 28 33 38 42 55 65 63 60 59 56 52 49 45 41 36 33 30 24 22 19 17 15 11 9 6 9 10 12 12 12 12 10 9 7 5 4 4 4 5
33 26 23 21 21 28 33 38 45 56 66 62 61 60 57 52 49 47 42 37 35 32 27 22 20 18 17 16 13 9 8 8 8 7 7 8 9 9 7 7 6 6 7 7
31 25 19 13 16 31 38 40 46 58 65 67 63 60 58 52 49 48 41 38 36 35 31 25 20 17 16 17 15 14 12 13 12 9 9 11 12 11 10 9 10 10 11 12
31 24 19 13 15 28 35 34 42 58 66 69 66 62 59 55 51 49 46 39 38 36 33 30 28 22 20 21 20 17 16 15 17 15 14 14 13 13 15 16 17 18 18 19
31 24 18 11 10 23 31 31 43 60 70 71 69 66 62 58 53 49 45 44 41 39 36 35 32 28 26 24 24 20 18 18 18 19 20 20 20 21 22 23 24 25 27 28
31 23 18 12 6 15 23 27 38 63 70 75 76 72 67 61 58 53 46 44 45 43 41 38 32 32 31 29 28 26 25 23 23 25 26 27 28 29 30 31 31 33 35 36
30 24 18 12 6 9 21 31 42 65 71 73 77 72 68 64 59 54 46 42 44 47 45 41 37 39 38 37 35 33 31 30 30 31 30 32 34 36 38 39 41 43 44 45
28 22 17 13 10 20 24 35 44 61 68 70 73 74 73 69 62 57 51 46 43 48 48 49 43 42 42 40 39 37 34 34 33 33 36 38 39 41 38 42 44 47 51 52
25 22 15 14 12 28 33 37 48 54 61 66 70 74 74 71 64 60 57 54 55 51 45 43 38 36 37 35 34 38 40 41 35 29 26 26 26 27 27 27 26 29 33 37
25 20 18 10 15 26 38 44 48 55 56 59 68 74 77 73 68 65 63 66 67 60 53 51 46 42 40 39 36 32 30 31 32 33 33 32 32 31 29 29 28 28 29 29

GFSNW_250_spd_009.txt.gz
Wind_Speed
79 69 54 44 34 20 4 10 19 25 34 40 47 54 53 49 45 43 46 49 45 41 38 37 34 29 28 34 39 47 44 42 41 48 47 36 46 39 31 28 31 33 38 57
78 67 50 38 26 18 4 13 21 25 30 35 51 58 57 52 45 38 38 39 38 37 37 34 28 24 30 32 31 23 27 29 30 35 27 15 11 12 12 9 10 16 27 50
76 65 49 35 24 18 4 13 15 20 25 30 52 61 57 51 45 40 35 34 36 36 33 28 22 27 25 21 21 23 22 21 27 22 27 38 35 33 21 18 6 5 13 31
77 66 50 36 25 15 2 15 21 26 26 38 51 59 57 50 47 44 39 37 35 33 30 24 24 22 25 20 24 28 18 16 21 20 34 42 42 40 36 35 28 13 2 13
77 65 50 36 23 11 7 12 19 20 22 28 40 52 56 53 50 46 43 38 36 33 28 26 23 22 23 24 23 16 9 7 19 23 35 42 45 48 44 37 27 17 11 11
79 66 54 37 26 11 4 5 17 22 24 25 35 49 58 55 52 49 44 42 40 33 31 26 23 23 23 21 27 15 11 5 16 19 22 28 33 37 42 42 38 33 31 28
78 66 55 38 26 15 5 2 13 23 32 35 36 49 59 58 53 49 46 43 39 36 33 26 26 25 24 24 23 14 7 10 7 15 19 18 22 29 35 42 42 38 35 34
76 67 55 40 27 18 7 4 10 19 28 35 41 51 57 58 56 53 47 45 41 38 33 28 29 24 27 33 22 11 2 12 14 11 21 25 25 19 24 27 31 34 36 35
72 66 53 38 25 17 10 5 9 17 26 32 39 45 55 59 58 54 52 47 43 39 34 30 30 26 28 28 19 11 7 8 11 9 15 15 21 24 19 22 17 18 20 23
69 64 52 40 28 18 12 8 11 14 20 28 35 42 48 54 58 56 53 49 46 42 36 33 30 26 27 32 19 20 11 8 8 5 9 7 11 15 17 19 22 14 14 11
66 61 52 40 28 18 14 9 12 13 17 23 32 38 44 48 51 52 51 51 47 42 38 39 28 26 23 29 23 22 21 15 12 8 2 1 2 7 11 12 16 17 16 14
63 60 50 38 29 20 14 13 11 12 15 21 28 35 40 43 46 50 52 47 46 42 38 38 27 28 31 28 31 23 22 24 16 13 11 10 10 8 9 11 13 13 17 17
59 56 48 38 28 19 16 17 15 16 15 21 29 36 40 44 48 49 48 47 45 40 40 37 28 28 31 32 28 33 30 22 24 23 22 23 21 20 19 19 22 20 23 9
56 53 45 37 28 20 17 21 19 21 20 24 30 34 39 45 50 50 49 45 42 35 28 28 26 28 29 28 30 31 28 25 27 28 29 30 28 25 26 27 25 13 12 7
54 50 41 35 28 18 19 23 24 22 24 29 33 36 42 47 50 50 44 39 41 35 28 26 22 19 20 20 21 18 18 19 22 23 19 20 22 19 17 18 16 13 10 5
51 47 39 32 25 17 17 22 24 26 30 33 39 42 47 52 50 46 44 41 37 33 26 22 23 18 16 17 19 13 15 19 20 20 18 18 15 12 12 12 12 8 5 4
48 44 36 30 21 14 17 23 27 32 34 37 42 48 53 54 51 48 44 41 35 33 30 26 18 14 14 14 12 12 15 17 17 17 17 15 12 7 6 6 6 7 6 5
45 41 33 26 19 13 19 24 28 34 39 40 48 55 57 56 52 48 44 39 36 33 29 26 22 17 16 14 11 8 10 13 14 13 12 12 13 16 12 9 9 9 9 8
43 38 30 22 15 11 18 24 28 32 41 46 53 59 58 57 53 49 43 38 37 35 31 27 25 22 18 18 13 9 6 10 12 12 15 16 17 15 12 10 9 8 8 7
42 37 26 19 14 13 14 19 26 32 44 52 57 62 60 57 54 49 43 40 37 35 32 30 28 23 20 21 17 13 10 9 11 14 13 12 11 12 11 11 11 9 9 9
42 38 25 18 12 8 8 16 26 32 46 53 60 63 61 58 55 51 45 41 40 36 34 31 29 30 24 20 17 15 16 16 15 14 13 13 16 16 16 16 15 14 14 15
42 39 25 15 9 4 7 14 26 37 51 55 59 63 62 61 57 53 48 42 42 38 36 33 29 29 28 25 20 18 19 18 16 16 16 18 22 21 21 20 18 18 19 21
41 38 25 13 4 6 9 11 23 36 47 52 57 63 64 62 59 55 50 44 42 40 38 36 35 32 30 30 28 26 23 21 20 20 20 22 23 22 22 22 24 24 26 29
41 37 29 16 7 11 14 12 24 33 38 44 53 62 65 64 61 57 53 48 45 42 41 39 37 36 34 31 29 29 28 26 25 24 25 25 26 26 27 29 30 31 33 37
35 34 32 19 8 15 21 24 29 34 36 40 48 57 65 64 61 58 54 53 50 52 49 44 42 39 37 35 33 32 32 32 30 29 29 30 30 31 32 35 38 40 41 41
31 28 28 23 12 11 23 27 30 33 34 36 39 49 61 67 64 62 58 56 60 56 50 50 48 46 45 42 39 37 38 38 38 37 37 36 35 34 36 33 26 26 29 30
25 24 23 23 16 13 17 27 33 34 36 37 36 42 56 66 69 67 66 67 64 56 47 45 48 49 50 48 45 42 42 45 46 45 45 46 45 45 37 33 33 32 33 33

GFSNW_250_spd_015.txt.gz
Wind_Speed
83 80 74 62 47 36 29 22 12 10 12 26 39 47 47 41 37 38 41 41 37 33 29 29 27 28 26 23 20 17 19 20 21 25 33 36 34 33 30 36 46 51 53 53
79 76 71 61 48 36 27 26 12 10 16 28 40 44 42 38 36 39 43 41 37 29 27 28 27 27 24 20 18 18 18 20 22 27 24 22 15 17 18 25 33 35 38 39
75 72 69 60 47 36 30 23 11 14 19 31 39 45 41 36 35 41 43 41 37 29 28 28 27 25 22 20 19 19 18 19 13 9 7 9 19 26 30 31 35 35 34 30
72 67 65 60 47 36 30 23 9 8 27 35 40 41 40 36 36 40 43 41 38 32 31 29 28 25 21 20 18 17 16 13 8 10 2 4 14 20 27 35 36 40 36 31
72 63 62 56 47 36 28 20 4 10 22 36 40 41 41 37 38 42 44 42 36 33 32 29 27 23 20 19 18 16 13 13 9 5 3 5 12 20 23 32 41 45 46 40
72 63 60 57 47 35 29 17 6 8 21 35 41 44 43 40 38 41 44 43 39 33 34 31 27 23 21 19 17 13 12 9 8 8 6 1 12 16 22 33 38 40 44 46
69 64 56 54 49 36 25 18 6 5 18 34 45 43 43 40 38 38 39 42 42 40 36 32 29 26 23 18 17 14 16 6 12 7 6 4 14 13 17 27 37 41 43 44
68 64 56 51 43 38 26 19 10 4 15 28 44 47 47 45 42 39 38 40 40 41 38 34 31 28 22 19 17 18 13 7 2 10 10 5 5 11 17 18 26 36 41 41
62 63 58 55 49 39 29 19 13 5 13 25 42 49 54 50 46 44 41 40 39 39 36 35 31 27 24 20 19 21 18 10 6 12 8 1 8 10 15 21 25 28 30 38
58 61 57 56 52 43 33 25 16 14 13 22 35 50 51 54 52 48 44 41 40 39 38 34 31 28 25 23 21 22 14 11 13 10 6 5 10 13 18 21 28 35 29 30
52 56 59 54 53 46 36 28 20 14 15 20 26 42 54 56 54 51 50 46 44 42 39 36 32 29 25 24 24 22 18 17 17 16 13 13 16 16 20 24 26 30 29 27
48 49 54 55 50 48 39 30 25 19 18 20 25 35 51 56 58 57 52 50 48 45 41 37 34 31 27 25 25 26 23 19 19 17 19 20 23 24 25 27 30 33 23 22
46 44 45 51 49 44 41 36 29 23 21 22 26 31 40 55 60 60 58 54 51 47 44 40 36 33 29 26 25 26 27 23 22 24 27 27 27 29 29 29 28 30 19 15
47 43 41 42 44 44 41 35 30 24 24 25 27 31 37 46 58 64 60 58 54 52 47 42 38 35 30 28 30 30 30 28 25 25 28 30 31 31 32 28 25 22 17 13
48 45 39 38 41 41 41 35 28 23 25 26 27 32 35 42 52 62 63 60 58 54 49 44 40 37 32 28 31 32 30 28 27 29 29 30 28 29 27 22 22 16 16 12
46 44 40 40 40 38 37 28 24 23 26 26 27 32 36 40 47 57 64 61 58 55 50 45 41 37 34 29 36 34 30 25 26 28 28 31 32 31 21 18 17 18 17 10
46 44 41 41 40 36 28 21 19 20 25 26 28 31 35 38 43 52 59 62 59 55 50 46 39 36 33 33 41 30 23 25 27 25 28 33 31 25 18 18 18 21 14 10
46 43 42 41 37 33 23 16 14 18 24 27 28 33 37 40 42 47 55 59 60 54 50 44 38 35 35 43 25 29 26 21 24 28 30 31 29 25 21 20 21 16 10 9
45 43 40 39 34 25 17 12 12 16 24 27 28 32 37 39 41 44 51 54 54 53 47 41 36 35 32 30 33 28 22 22 24 27 27 26 24 21 21 21 17 12 9 9
43 42 38 37 28 20 13 9 10 17 22 25 28 32 35 37 39 43 47 49 49 47 42 37 35 30 35 32 25 22 24 21 19 21 22 21 18 16 16 15 11 11 12 11
41 42 35 33 25 16 10 5 8 14 19 22 25 32 36 38 38 42 43 43 43 41 41 35 32 35 35 30 26 24 23 21 15 14 14 14 13 12 12 12 13 13 13 13
40 41 34 26 22 13 9 4 9 14 15 18 22 31 37 39 40 41 41 42 45 44 39 35 35 35 34 30 28 28 27 25 20 18 17 17 15 14 16 18 18 18 18 18
37 34 37 26 20 15 11 12 9 12 16 18 23 32 38 42 42 43 43 46 47 44 41 39 38 38 37 35 31 30 31 28 25 23 21 21 20 20 20 21 23 23 23 23
35 28 32 23 18 14 10 11 14 11 18 19 23 29 38 43 45 46 47 51 50 48 47 42 41 41 40 39 36 35 34 34 29 26 23 23 24 24 24 26 27 28 29 30
34 26 27 26 16 12 11 9 4 3 16 18 20 25 33 42 47 50 52 55 55 52 47 44 44 44 43 42 40 37 37 36 35 32 29 28 28 29 29 29 30 31 32 33
34 25 22 26 20 15 12 11 7 3 8 11 20 23 26 37 47 52 55 58 59 58 54 51 50 49 49 46 44 43 40 40 38 37 34 32 33 32 31 32 33 33 33 33
33 27 22 19 20 20 14 10 10 8 7 15 16 22 29 33 42 51 56 61 62 63 60 57 54 53 53 53 52 50 47 45 43 41 40 39 38 37 36 36 36 37 38 39

GFSNW_250_spd_018.txt.gz
Wind_Speed
93 89 87 80 65 55 44 36 29 18 14 14 26 31 36 38 36 32 28 28 33 32 28 26 27 28 30 31 32 31 33 37 36 22 22 18 21 26 32 34 36 40 41 41
91 85 82 77 64 53 43 36 30 16 13 20 30 34 39 37 34 30 28 31 32 29 27 27 26 27 25 27 29 28 24 21 16 13 12 15 19 17 13 15 20 30 34 39
89 85 75 72 62 53 43 34 30 15 12 18 25 33 33 29 25 23 26 31 30 27 26 25 25 24 25 26 27 24 19 15 11 10 12 13 13 7 14 20 22 28 38 37
85 84 74 65 60 54 45 33 26 15 11 17 20 21 20 16 18 24 33 34 31 27 22 22 21 24 27 26 23 20 15 12 11 10 10 13 2 9 11 19 27 32 38 46
83 82 75 58 54 53 44 31 20 13 6 14 18 19 18 17 19 28 34 34 30 25 24 26 25 26 25 22 19 15 14 12 12 8 13 12 4 5 10 21 29 37 42 45
79 78 74 61 47 42 43 32 19 9 5 13 17 22 23 21 22 27 34 34 31 27 25 26 25 24 22 18 15 15 12 12 9 11 7 11 3 4 9 17 23 37 35 42
76 73 71 64 43 38 35 32 19 11 8 18 22 27 27 26 27 32 37 36 33 29 27 26 25 23 19 15 16 13 11 11 7 13 7 14 6 7 11 21 22 33 35 40
71 69 65 63 53 32 27 27 22 12 12 18 26 33 34 31 29 33 38 38 35 30 30 28 26 23 20 17 17 13 15 10 7 15 10 15 9 6 14 18 25 24 40 39
67 67 63 57 55 47 32 24 20 16 12 17 30 35 39 37 35 34 37 40 39 35 34 31 28 25 22 21 19 14 15 12 11 16 14 14 7 6 13 22 28 30 33 37
63 64 61 54 51 50 42 31 23 17 14 17 26 37 40 46 40 38 37 39 41 40 39 35 32 28 26 23 19 14 20 14 13 14 17 10 10 8 17 23 27 31 36 34
61 61 59 53 49 47 47 40 28 23 15 17 22 32 41 48 46 44 41 40 40 40 41 39 35 31 29 25 22 19 19 14 12 13 20 17 12 13 21 26 30 32 32 28
61 58 54 49 46 45 46 44 39 28 22 16 21 29 37 46 53 52 47 45 43 41 40 36 35 33 29 26 24 20 19 18 16 14 16 18 17 18 23 28 32 32 30 23
61 56 52 48 44 41 42 44 42 39 32 24 22 29 36 43 55 55 53 50 47 44 40 39 38 34 30 27 25 20 19 21 20 18 18 19 20 23 24 29 33 32 29 22
61 57 52 47 43 40 41 43 43 39 39 34 28 30 33 40 46 57 56 55 51 47 44 43 39 36 32 28 26 23 25 24 23 22 21 22 23 26 26 28 30 29 29 22
61 58 53 47 43 40 42 41 38 37 37 34 31 30 33 38 43 50 62 58 54 52 49 45 42 38 34 29 31 29 25 24 26 25 27 27 24 26 28 28 27 23 23 24
61 59 53 47 44 41 41 35 31 30 28 27 27 29 33 36 41 47 58 64 59 56 53 49 45 41 36 34 36 30 25 22 25 28 31 29 23 27 29 26 23 18 20 21
60 58 51 46 43 41 38 29 25 23 21 22 23 28 32 34 39 43 50 59 62 61 56 53 47 43 40 39 35 26 25 25 31 36 29 23 24 29 28 25 18 19 20 20
58 57 51 45 41 39 31 27 22 19 18 17 21 27 31 32 35 39 43 51 60 63 59 54 50 45 42 39 34 35 30 31 37 33 25 24 25 28 27 26 24 22 19 18
56 55 49 43 40 33 29 25 19 14 14 16 21 25 27 29 33 37 40 45 52 61 61 56 52 47 44 41 36 34 34 38 38 25 23 23 27 26 25 23 19 18 17 13
52 52 47 40 37 29 28 20 14 11 12 13 18 23 27 28 31 35 39 42 48 54 56 55 53 49 45 41 35 35 36 37 34 27 25 24 23 22 20 16 14 13 13 11
49 49 44 33 32 28 23 16 11 7 5 8 16 21 24 28 32 35 38 41 45 49 52 54 52 49 43 38 33 34 35 36 34 29 22 20 18 16 15 14 12 11 11 12
44 46 40 28 22 23 18 11 10 7 6 10 16 21 25 28 32 34 38 40 43 48 48 49 47 45 42 35 30 35 38 36 33 25 17 18 17 16 14 14 14 13 13 15
39 42 35 28 22 23 21 13 7 12 10 15 19 22 24 26 30 32 34 38 40 42 45 44 44 42 39 34 33 38 38 36 31 25 23 22 20 21 18 16 18 18 18 19
36 36 33 23 19 17 21 16 10 10 9 17 19 21 24 28 30 33 33 38 39 39 40 42 42 42 40 36 39 38 38 34 31 31 31 30 28 25 22 21 22 22 23 24
32 32 30 24 21 16 13 15 8 8 9 14 19 19 20 25 31 33 35 37 40 41 41 42 44 44 39 41 41 39 38 35 33 34 33 34 33 30 29 28 28 27 28 29
29 31 27 26 21 21 16 13 10 6 12 14 17 19 21 23 28 34 37 40 42 44 46 47 48 45 42 44 44 43 42 41 38 38 38 39 38 35 33 33 32 32 32 32
29 30 26 24 25 22 21 17 16 10 8 13 18 21 23 25 25 30 38 42 45 48 51 53 53 49 47 47 47 47 47 47 45 43 41 41 40 39 38 37 35 35 35 35

GFSNW_250_spd_021.txt.gz
Wind_Speed
103 100 97 96 87 81 72 53 43 39 27 15 9 21 26 32 37 36 34 26 19 15 16 19 21 27 27 27 27 26 29 28 23 21 24 29 33 35 31 28 30 35 35 36
100 96 93 91 88 82 73 56 45 39 32 18 14 22 31 33 31 29 27 22 18 20 24 24 26 27 26 26 27 26 24 22 22 24 26 26 23 19 18 18 17 23 21 35
96 91 91 83 79 77 70 59 45 40 28 23 17 19 20 23 25 23 19 17 21 26 27 26 24 24 24 25 25 26 26 22 25 24 21 18 18 15 12 10 13 21 23 31
91 88 85 79 71 68 61 54 42 33 26 17 15 16 16 12 11 14 16 23 27 27 26 26 26 25 25 24 24 25 23 29 26 21 18 16 14 14 10 12 12 17 27 34
86 84 80 74 68 62 58 47 40 27 19 12 7 10 13 12 12 14 24 28 28 27 26 23 21 21 22 23 24 27 29 24 21 19 18 16 19 15 9 9 18 22 28 38
81 78 76 74 64 57 47 43 34 28 14 5 3 6 8 9 14 21 28 30 28 24 20 20 19 21 24 27 29 26 22 19 19 18 17 18 18 12 12 12 14 21 30 37
75 73 71 72 65 56 44 38 36 26 21 8 9 13 13 10 11 24 30 30 26 22 21 22 23 26 28 26 23 20 19 18 18 19 18 23 19 13 12 13 13 20 29 34
71 68 67 67 67 60 49 36 27 25 20 16 11 19 22 18 16 22 30 31 29 25 24 26 27 26 23 20 19 20 19 18 13 17 19 21 19 13 12 15 18 23 29 32
67 65 64 62 62 59 56 47 30 24 21 18 17 17 27 26 25 24 28 35 33 30 28 27 26 25 21 18 18 21 16 18 14 17 17 21 20 14 14 13 18 24 30 31
63 61 62 62 61 57 52 49 46 28 23 21 17 20 26 34 33 29 30 36 37 34 32 30 28 25 23 20 20 19 20 17 13 15 19 20 19 16 17 15 20 26 30 29
59 58 59 59 60 58 52 51 48 43 31 23 20 21 25 32 41 38 36 38 40 38 35 34 32 29 27 23 23 20 18 21 14 17 17 20 18 18 20 18 24 29 32 30
58 56 56 57 57 56 55 53 51 47 44 30 24 24 24 30 36 47 43 39 40 42 41 38 36 33 30 26 26 22 19 17 15 19 20 24 22 22 17 18 24 29 30 27
57 54 57 58 56 53 50 53 51 48 47 39 34 26 24 28 35 43 49 46 44 43 44 42 40 38 33 29 29 26 22 19 17 18 18 21 22 17 17 22 25 29 29 25
57 54 57 58 56 50 47 50 51 48 47 42 38 29 27 28 33 37 49 53 49 47 44 43 41 39 35 33 33 30 25 19 16 16 20 20 18 18 19 22 25 30 30 22
56 55 59 60 56 51 47 47 45 43 42 43 41 34 31 29 33 37 46 55 55 51 47 44 42 39 38 37 36 31 25 19 18 16 22 23 23 24 22 23 25 27 21 20
56 57 59 60 57 53 48 46 40 38 38 38 36 31 29 29 32 36 41 52 59 56 52 48 45 41 42 41 39 26 23 21 20 25 23 26 24 26 24 24 25 25 16 18
54 58 59 59 56 52 46 42 37 35 31 27 25 24 24 28 31 35 38 47 57 61 57 54 47 44 45 43 35 31 28 27 28 26 25 24 23 24 23 26 25 24 19 19
54 56 58 56 53 48 43 39 37 29 23 20 18 19 22 23 27 32 34 41 52 61 62 56 52 48 48 44 39 35 32 29 31 29 26 24 25 23 25 26 28 24 20 19
54 56 56 54 49 44 39 35 30 24 18 14 14 15 16 20 25 28 30 36 45 55 61 60 55 52 50 46 42 38 33 32 33 34 30 28 24 24 26 27 25 22 17 16
52 54 53 52 48 42 33 28 26 20 15 10 8 11 14 20 23 26 28 33 40 47 54 58 58 56 52 50 46 41 37 35 36 34 33 33 27 27 30 24 23 17 15 13
52 51 50 47 45 39 35 28 22 16 11 7 7 10 14 17 20 24 26 31 36 41 45 53 60 60 56 52 48 44 39 37 36 36 35 33 29 32 28 23 19 18 15 13
51 48 46 41 36 35 31 24 17 14 11 7 6 10 14 17 21 23 24 27 31 34 39 46 53 58 56 53 48 44 42 39 38 36 37 32 33 31 27 20 17 15 14 13
47 46 44 39 33 29 29 20 13 15 12 10 8 11 14 16 18 20 22 24 27 30 35 39 45 51 54 55 52 47 43 40 36 36 31 32 34 30 25 19 17 18 18 17
45 43 40 35 34 27 24 20 14 14 14 15 11 13 14 16 19 21 23 25 26 29 31 36 40 43 46 49 48 46 43 39 37 33 33 34 36 31 26 23 22 22 22 23
43 40 36 32 31 27 21 17 14 13 14 15 14 17 17 18 20 21 22 25 28 29 32 34 38 42 44 45 46 46 44 40 37 38 37 37 39 33 30 28 27 26 27 26
40 38 35 31 29 25 19 19 15 13 13 13 12 16 21 20 20 21 23 26 28 30 33 35 37 40 43 44 45 44 44 43 42 41 39 38 37 35 34 34 34 33 31 31
38 35 34 30 28 26 22 19 17 13 13 14 12 13 19 24 25 27 28 30 28 31 34 38 41 43 44 45 46 45 46 45 46 44 43 40 39 38 37 37 37 37 37 36